Location: Jarocin
(51.9626°N, 17.5030°E)
Time: 16:43:07
(UTC+01:00)

ISS - Visible Passes

Search period start: 20 November 2017 00:00
Search period end: 30 November 2017 00:00
Orbit: 402 x 407 km, 51.6° (Epoch: 21 November)

Date Brightness Start Highest point End Pass type
(mag) Time Alt. Az. Time Alt. Az. Time Alt. Az.
28 Nov -1.2 18:16:51 10° SSW 18:17:35 14° S 18:17:35 14° S visible
29 Nov -1.6 17:25:26 10° S 17:27:15 14° SE 17:27:28 14° SE visible
29 Nov -0.5 18:59:58 10° SW 19:00:07 11° SW 19:00:07 11° SW visible
